#timestamp,LO_Frequency,Hit,StdDev 
1512010815.3,286046993.8,N
1512010835.1,286046992.8,N
1512010855.9,286046990.9,N
1512010875.7,286046986.9,N
1512010895.5,286046985.5,N
1512010915.3,286046985.1,N
1512010935.2,286046983.0,N
1512010955.0,286046985.1,N
1512010955.9,286046985.1,N
1512010975.7,286046981.4,N
1512010995.6,286046983.5,N
1512011015.4,286046984.2,N
1512011035.2,286046988.4,N
1512011055.1,286046982.1,N
1512011056.0,286046982.1,N
1512011075.8,286046982.1,N
1512011095.6,286046984.0,N
1512011115.5,286046984.2,N
1512011135.3,286046982.3,N
1512011155.1,286046982.4,N
1512011175.9,286046983.8,N
1512011195.7,286046987.8,N
1512011215.5,286046992.7,N
1512011235.4,286046991.3,N
1512011255.2,286046987.1,N
1512011275.0,286046988.2,N
1512011275.9,286046988.2,N
1512011295.8,286046987.4,N
1512011315.6,286046992.7,N
1512011335.4,286046990.3,N
1512011355.2,286046993.2,N
1512011375.1,286046996.3,N
1512011376.0,286046996.3,N
1512011395.8,286046998.2,N
1512011415.6,286047001.0,N
1512011435.5,286046998.5,N
1512011455.3,286046995.0,N
1512011475.1,286046992.1,N
1512011495.9,286046991.8,N
1512011515.7,286046992.6,N
1512011535.5,286046990.8,N
1512011555.4,286046991.7,N
1512011575.2,286046992.3,N
1512011595.0,286046992.1,N
1512011595.9,286046992.1,N
1512011615.8,286046997.9,N
1512011635.6,286046994.8,N
1512011655.4,286046992.6,N
1512011675.2,286046988.9,N
1512011695.1,286046987.1,Y
1512011696.0,286046987.1,P
1512011715.8,286046995.3,N
1512011735.7,286047001.2,N
1512011755.5,286046997.1,N
1512011775.3,286047000.6,N
1512011795.1,286047000.3,N
1512011815.9,286047002.2,N
1512011835.7,286047002.5,N
1512011855.5,286047001.7,N
1512011875.4,286047003.7,N
1512011895.2,286047001.6,N
1512011915.0,286046999.0,N
1512011915.9,286046999.0,N
1512011935.8,286046996.7,N
1512011955.6,286046997.9,N
1512011975.4,286046996.2,N
1512011995.3,286046996.4,N
1512012015.1,286046995.5,N
1512012016.0,286046995.5,N
1512012035.8,286046995.2,N
1512012055.6,286046996.7,N
1512012075.5,286047002.4,N
1512012095.3,286047001.7,N
1512012115.1,286046999.1,N
1512012135.9,286046997.0,N
1512012155.7,286046995.2,N
1512012175.5,286046994.1,N
1512012195.4,286046995.2,N
1512012215.2,286046996.7,N
1512012235.0,286046994.0,N
1512012235.9,286046994.0,N
1512012255.8,286046994.0,N
1512012275.6,286046992.2,N
1512012295.4,286046994.0,N
1512012315.3,286046993.5,N
1512012335.1,286046995.7,N
1512012336.0,286046995.7,N
1512012355.8,286046996.1,N
1512012375.6,286046996.4,N
1512012395.5,286046991.3,Y
1512012415.3,286046992.8,P
1512012435.1,286046993.4,P
1512012455.9,286046995.0,N
1512012475.7,286046996.8,N
1512012495.6,286046995.0,Y
1512012515.4,286047004.4,P
1512012535.2,286047001.3,N
1512012555.0,286047002.7,N
1512012555.9,286047002.7,N
1512012575.8,286047002.1,N
1512012595.6,286047007.1,N
1512012615.4,286047010.7,Y
1512012635.3,286047010.2,P
1512012655.1,286047010.2,N
1512012675.8,286047012.0,P
1512012695.7,286047013.3,Y
1512012715.5,286047006.9,P
1512012735.3,286047012.3,P
1512012755.2,286047009.7,P
1512012775.0,286047014.0,Y
1512012775.9,286047014.0,P
1512012795.7,286047005.4,N
1512012815.6,286047006.1,N
1512012835.4,286047008.2,N
1512012855.2,286047012.2,Y
1512012875.1,286047005.5,P
1512012876.0,286047005.5,P
1512012895.8,286047004.9,P
1512012915.7,286047007.3,Y
1512012935.5,286047000.9,P
1512012955.3,286047001.8,N
1512012975.1,286047001.6,N
1512012995.9,286047002.6,N
1512013015.7,286047000.8,N
1512013035.5,286046999.8,N
1512013055.4,286047001.8,N
1512013075.2,286046998.2,N
1512013095.0,286047002.2,N
1512013095.9,286047002.2,N
1512013115.8,286047002.4,N
1512013135.6,286047002.7,N
1512013155.4,286046998.3,N
1512013175.3,286046998.3,N
1512013195.1,286047000.9,N
1512013196.0,286047000.9,N
1512013215.8,286047002.2,N
1512013235.7,286047006.3,Y
1512013255.5,286047005.3,P
1512013275.3,286047007.3,P
1512013295.2,286047004.6,N
1512013315.9,286047007.6,Y
1512013335.7,286047001.2,P
1512013355.6,286046997.6,N
1512013375.4,286046995.9,N
1512013395.2,286046991.1,N
1512013415.1,286046992.5,N
1512013416.0,286046992.5,N
1512013435.8,286046993.3,N
1512013455.6,286046995.2,N
1512013475.4,286046998.0,N
1512013495.3,286046995.1,N
1512013515.1,286046993.5,N
1512013535.9,286046987.6,Y
1512013555.7,286046995.4,P
1512013575.5,286046996.3,P
1512013595.3,286046994.8,P
1512013615.2,286046991.3,Y
1512013635.0,286046997.2,P
1512013635.9,286046997.2,P
1512013655.8,286046996.9,P
1512013675.6,286047001.7,N
1512013695.4,286047001.6,N
1512013715.2,286046998.7,N
1512013735.1,286046995.5,N
1512013736.0,286046995.5,N
1512013755.8,286046992.5,Y
1512013775.7,286046994.8,P
1512013795.5,286046989.2,P
1512013815.3,286046985.8,P
1512013835.1,286046986.7,N
1512013855.9,286046981.8,Y
1512013875.7,286046991.2,P
1512013895.5,286046993.0,P
1512013915.4,286046991.2,P
1512013935.2,286046987.4,Y
1512013955.0,286046994.1,P
1512013956.0,286046994.1,P
1512013975.8,286046994.6,P
1512013995.6,286046996.0,Y
1512014015.5,286047000.2,P
1512014035.3,286047000.7,N
1512014055.1,286047002.1,N
1512014075.8,286046998.3,N
1512014095.7,286046998.3,N
1512014115.5,286046998.1,N
1512014135.3,286046999.5,N
1512014155.2,286046995.3,N
1512014175.9,286047001.2,N
1512014195.7,286047002.5,N
1512014215.6,286046999.7,N
1512014235.4,286047003.6,N
1512014255.2,286047007.0,N
1512014275.1,286047005.8,N
1512014276.0,286047005.8,N
1512014295.8,286047006.7,N
1512014315.6,286047006.2,N
1512014335.4,286047005.0,N
1512014355.3,286047007.0,N
1512014375.1,286047010.1,N
1512014395.8,286047012.4,N
